Other Public Products
Issued by NWS Charleston, SC

Current Version | Previous Version | Graphics & Text | Print | Product List | Glossary On
Versions: 1 2 3 4 5 6 7 8 9 10 11 12 13 14 15 16 17 18 19 20 21 22 23 24 25 26 27 28 29 30 31 32 33 34 35 36 37 38 39 40 41 42 43 44 45 46 47 48 49 50
221
FPUS82 KCHS 201627
OPUCHS

TEST...KCHS/KSAV Gateway Observations...TEST
National Weather Service Charleston SC
1200 PM EDT THU JUL 20 2017

NOTE: "fair" indicates few or no clouds below 12,000 feet with no
significant weather and/or obstructions to visibility.

SCZ050-WAZ558-NCZ071-TXZ119-213-PAZ071-DCZ001-FLZ074-172-MI076-
NYZ176-178-MAZ016-IL014-TNZ027-NJZ106-GAZ044-MD014-201700-

...Gateway Observations for Charleston International...

CITY           SKY/WX    TMP DP  RH WIND       PRES   REMARKS
Chas Airport   MOSUNNY   89  74  60 NW5       30.10R HX  98
Seattle        PTSUNNY   62  55  77 S12       30.12R
Charlotte      MOSUNNY   90  72  55 N5        30.12S HX  97
Dallas DFW     MOSUNNY   93  73  52 S13       30.11S HX 102
Dallas Love    MOSUNNY   92  72  51 SW8       30.12S HX  99
Philladelphia  PTSUNNY   92  71  50 SW13      29.98F HX  98
Wash National  PTSUNNY   94  72  48 VRB6      30.01F HX 102
Baltimore      PTSUNNY   93  70  46 NW9       30.00F HX  99
Miami          PTSUNNY   86  76  71 E8        30.11S THUNDER HX  96
Detroit        CLOUDY    82  69  64 SW9       29.98F
Newark         PTSUNNY   94  66  39 SW8       29.95F HX  97
Laguardia      PTSUNNY   93  68  43 W9        29.95F HX  97
J F K          PTSUNNY   91  74  57 S8        29.97F HX 100
Boston Logan   PTSUNNY   89  64  43 NW10      29.92F HX  90
Ft. Lauderdale MOSUNNY   86  79  79 SE10      30.10F HX  99
Chicago O`Hare CLOUDY    78  70  76 SW15G21   29.96F
Chicago Midway CLOUDY    78  71  79 SW15G22   29.97F
Houston Bush   MOSUNNY   90  75  61 W7        30.13F HX 100
Houston Hobby  MOSUNNY   91  74  57 W7        30.12F HX 100
Nashville      PTSUNNY   91  71  51 N8        30.14F HX  97
Atlanta        MOSUNNY   88  69  53 NW9       30.14S HX  92

$$

GAZ044-118-TXZ119-213-NCZ071-DCZ001-MDZ014-506-PAZ021-071-NJZ106-
NYZ176-178-MAZ106-OHZ011-021-055-MIZ076-KYZ091-ILZ014-INZ047-
MNZ060-ONZ431-201700-

...Gateway Observations for Savannah International...

CITY           SKY/WX    TMP DP  RH WIND       PRES   REMARKS
Savannah Arpt  MOSUNNY   89  77  67 CALM      30.11R HX 101
Atlanta        MOSUNNY   88  69  53 NW9       30.14S HX  92
Charlotte      MOSUNNY   90  72  55 N5        30.12S HX  97
Dallas DFW     MOSUNNY   93  73  52 S13       30.11S HX 102
Houston Bush   MOSUNNY   90  75  61 W7        30.13F HX 100
Wash National  PTSUNNY   94  72  48 VRB6      30.01F HX 102
Wash Dulles    PTSUNNY   90  70  51 N7        30.03F HX  95
Baltimore      PTSUNNY   93  70  46 NW9       30.00F HX  99
Philadelphia   PTSUNNY   92  71  50 SW13      29.98F HX  98
Newark         PTSUNNY   94  66  39 SW8       29.95F HX  97
Laguardia      PTSUNNY   93  68  43 W9        29.95F HX  97
J F K          PTSUNNY   91  74  57 S8        29.97F HX 100
Boston         PTSUNNY   89  64  43 NW10      29.92F HX  90
Pittsburg      CLOUDY    84  69  60 W9        30.07S
Akron          NOT AVBL
Cleveland      PTSUNNY   84  71  65 W16G24    30.02F
Cincinnati     CLOUDY    84  75  74 S3        30.13F HX  92
Columbus       PTSUNNY   85  73  66 SW10      30.07F HX  91
Detroit        CLOUDY    82  69  64 SW9       29.98F
Chicago O`Hare CLOUDY    78  70  76 SW15G21   29.96F
Minneapolis    PTSUNNY   79  70  74 CALM      30.03R
Indianapolis   TSTM      78  71  79 NW23G33   30.14R
Toronto Canada CLOUDY    61  59  94 NE13      30.01

$$




USA.gov is the U.S. government's official web portal to all federal, state and local government web resources and services.